www.pogodaiklimat.ru

Погода и климат >> Архив погоды >> Великобритания >> Томастаун


ПОГОДА в Томастауне

  • Прогноз погоды в Томастауне
  • Монитор погоды в Томастауне

АРХИВ ПОГОДЫ в Томастауне

Время (UTC), дата Ветер
(напр.,м/с)
 
Видим.   Явления Облачность Т
(С)
Тd
(С)
f
(%)
Тe
(С)
Тes
(С)
Комфортность P
(гПа)
Po
(гПа)
Тmin
(С)
Tmax
(С)
R
(мм)
R24
(мм)
S
(см)
16 14.09 ЮЗ 7 40 км н/о +16.7 +13.2 80 +15 +15 1024.1 1015.4
17 14.09 ЮЗ 7 35 км н/о +16.8 +13.3 80 +16 +16 1023.5 1014.9
18 14.09 ЮЗ 6
{13}
40 км н/о +16.5 +13.3 81 +15 +15 1023.2 1014.6 +18.2
19 14.09 ЮЗ 7 30 км н/о +15.9 +13.4 85 +14 +14 1023.1 1014.4
20 14.09 ЮЗ 8
{13}
40 км в посл. час дождь н/о +15.4 +13.5 88 +13 +13 1023.0 1014.3
21 14.09 ЮЗ 7
{13}
7000 м слаб. морось с дождем н/о +15.1 +13.8 92 +13 +13 1022.8 1014.1
22 14.09 З 4 5000 м слаб. морось н/о +14.7 +14.3 97 +13 +13 1023.3 1014.6
23 14.09 ЮЗ 4 5000 м слаб. морось н/о +14.8 +14.4 97 +14 +14 1023.0 1014.3
00 15.09 З 4 5000 м слаб. морось н/о +13.6 +13.1 97 +12 +12 1023.4 1014.6 1
01 15.09 СЗ 3 13 км в посл. час дождь н/о +13.1 +12.7 97 +12 +12 1023.5 1014.8
02 15.09 СЗ 3 30 км в посл. час дождь н/о +12.3 +11.8 97 +11 +11 1023.8 1015.1
03 15.09 З 1 18 км н/о +12.2 +11.6 96 +12 +12 1023.5 1014.7
04 15.09 СЗ 3 14 км н/о +12.3 +11.6 95 +11 +11 1023.4 1014.6
05 15.09 СЗ 3 12 км н/о +12.1 +11.0 93 +11 +11 1023.5 1014.7
06 15.09 СЗ 3 13 км слаб. морось с дождем н/о +11.8 +10.5 92 +10 +10 1023.8 1015.0 +11.8 1
07 15.09 З 3 12 км слаб. ливневой дождь н/о +11.4 +9.9 90 +10 +10 1023.8 1015.0
08 15.09 СЗ 2 18 км в посл. час дождь н/о +11.4 +10.2 92 +10 +10 1023.8 1015.0
09 15.09 СЗ 2 26 км н/о +11.6 +9.5 87 +10 +10 1024.6 1015.8
10 15.09 СЗ 2 4800 м слаб. ливневой дождь н/о +11.0 +9.3 89 +10 +10 1024.7 1015.9
11 15.09 З 2 5000 м дождь н/о +10.9 +10.3 96 +10 +10 1024.3 1015.5
12 15.09 Ю 2 5000 м слаб. дождь н/о +11.1 +10.7 97 +10 +10 1024.3 1015.5 2
13 15.09 В 1 4400 м слаб. морось н/о +12.0 +10.8 92 +12 +12 1024.3 1015.5
14 15.09 ЮВ 1 10 км слаб. морось н/о +11.6 +10.6 94 +11 +11 1023.7 1014.9
15 15.09 ЮВ 1 15 км в посл. час морось н/о +12.1 +10.3 89 +12 +12 1023.6 1014.8
16 15.09 ЮВ 1 27 км слаб. ливневой дождь н/о +12.3 +10.6 89 +12 +12 1022.9 1014.2
17 15.09 ЮВ 2 50 км в посл. час дождь н/о +11.9 +11.1 95 +11 +11 1022.7 1013.9
18 15.09 ЮВ 2 15 км дымка н/о +11.7 +11.1 96 +11 +11 1022.5 1013.7 +12.6 2
19 15.09 В 1 3800 м слаб. морось н/о +11.4 +11.0 97 +11 +11 1022.6 1013.8
20 15.09 В 1 18 км в посл. час дождь н/о +11.3 +11.1 99 +11 +11 1022.5 1013.7
21 15.09 ЮВ 1 13 км н/о +11.3 +11.1 99 +12 +12 1022.7 1013.9
22 15.09 В 1 9000 м дымка н/о +11.2 +11.0 99 +12 +12 1023.2 1014.4
23 15.09 В 2 10 км н/о +11.1 +10.9 99 +10 +10 1022.9 1014.1
00 16.09 В 2 14 км н/о +11.0 +10.7 98 +10 +10 1023.1 1014.3 0.2
01 16.09 В 2 15 км н/о +10.9 +10.5 97 +10 +10 1023.1 1014.3
02 16.09 СВ 1 11 км н/о +11.0 +10.6 97 +11 +11 1022.8 1014.0
03 16.09 В 1 13 км н/о +10.9 +10.3 96 +11 +11 1022.7 1013.9
04 16.09 С 1 11 км дымка н/о +10.7 +10.3 97 +10 +10 1022.7 1013.9
05 16.09 СЗ 1 7000 м дымка н/о +10.5 +10.2 98 +11 +11 1022.4 1013.6
06 16.09 С 2 7000 м дымка н/о +10.3 +10.1 99 +9 +9 1022.9 1014.1 +10.3 0.2
07 16.09 С 1 10 км н/о +10.2 +10.0 99 +10 +10 1023.0 1014.2
08 16.09 СЗ 1 13 км н/о +10.9 +10.6 98 +11 +11 1023.6 1014.8
09 16.09 СЗ 2 21 км н/о +11.6 +10.7 94 +11 +11 1024.5 1015.7
10 16.09 СЗ 1 40 км н/о +12.6 +9.6 82 +13 +13 1024.7 1015.9
11 16.09 С 2 50 км н/о +13.3 +9.0 75 +13 +13 1024.8 1016.1
12 16.09 СЗ 2 30 км н/о +14.0 +8.8 71 +14 +14 1025.1 1016.3
13 16.09 СЗ 1 50 км н/о +15.7 +10.1 69 +16 +16 1024.9 1016.2
14 16.09 СЗ 3 45 км н/о +15.6 +8.9 64 +15 +15 1024.8 1016.1
15 16.09 СЗ 2 45 км н/о +14.8 +9.1 69 +15 +15 1024.7 1016.0
16 16.09 СЗ 3 40 км н/о +15.7 +8.9 64 +15 +15 1024.6 1015.9
17 16.09 СЗ 3 35 км н/о +15.4 +9.4 67 +15 +15 1024.8 1016.1
18 16.09 СЗ 3 35 км н/о +13.5 +8.4 71 +12 +12 1025.1 1016.4 +16.4
19 16.09 СЗ 3 45 км н/о +11.8 +7.2 73 +10 +10 1025.6 1016.8
20 16.09 СЗ 2 45 км н/о +9.9 +7.3 84 +9 +9 1026.1 1017.3
21 16.09 СЗ 2 24 км н/о +8.3 +6.9 91 +7 +7 1026.6 1017.7
22 16.09 СЗ 2 28 км н/о +7.6 +6.9 95 +6 +6 1026.7 1017.7
23 16.09 ЮЗ 1 30 км н/о +7.6 +7.3 98 +6 +6 1026.9 1017.9
00 17.09 ЮВ 1 28 км н/о +8.4 +8.0 97 +7 +7 1026.5 1017.6
01 17.09 С 1 26 км н/о +7.6 +7.0 96 +8 +8 1026.7 1017.8
02 17.09 В 1 15 км н/о +7.1 +6.8 98 +7 +7 1026.8 1017.9
03 17.09 Ю 1 26 км н/о +7.3 +7.0 98 +6 +6 1026.5 1017.6
04 17.09 В 1 22 км н/о +6.7 +6.5 99 +7 +7 1026.8 1017.8
05 17.09 С 1 16 км в посл. час туман н/о +5.6 +5.3 98 +5 +5 1027.0 1018.0
06 17.09 С 1 16 км н/о +5.4 +5.3 99 +4 +4 1027.4 1018.4 +5.1
07 17.09 Ю 1 19 км н/о +6.1 +6.0 99 +6 +6 1027.8 1018.8
08 17.09 ЮВ 1 35 км н/о +7.8 +7.7 99 +7 +7 1028.2 1019.2
09 17.09 В 1 35 км н/о +11.0 +9.7 92 +11 +11 1028.4 1019.6
10 17.09 СЗ 2 40 км н/о +13.0 +9.4 79 +13 +13 1028.6 1019.8
11 17.09 С 2 27 км н/о +14.8 +9.5 71 +15 +15 1028.4 1019.7
12 17.09 С 2 30 км н/о +15.4 +9.7 69 +15 +15 1028.4 1019.7
13 17.09 С 3 35 км н/о +15.9 +7.5 57 +16 +16 1028.4 1019.7
14 17.09 СЗ 2 45 км н/о +15.7 +8.0 60 +16 +16 1028.3 1019.6
15 17.09 С 3 35 км н/о +16.8 +8.6 58 +17 +17 1028.0 1019.3
16 17.09 С 2 18 км н/о +17.6 +9.2 58 +18 +18 1027.7 1019.0
17 17.09 С 2 40 км н/о +17.2 +9.1 59 +18 +18 1027.5 1018.9
18 17.09 СЗ 2 40 км н/о +15.9 +9.3 65 +16 +16 1027.5 1018.8 +17.8
19 17.09 СЗ 2 45 км н/о +13.0 +9.4 79 +12 +12 1028.1 1019.3
20 17.09 С 2 30 км н/о +11.4 +9.3 87 +11 +11 1028.6 1019.8
21 17.09 СЗ 2 30 км н/о +10.3 +9.1 92 +9 +9 1028.9 1020.0
22 17.09 СВ 1 20 км н/о +8.6 +8.0 96 +8 +8 1029.2 1020.2
23 17.09 штиль 0 20 км н/о +8.6 +8.1 97 +8 +8 1029.2 1020.2
00 18.09 ЮВ 1 13 км н/о +8.1 +7.8 98 +8 +8 1029.2 1020.2
01 18.09 З 1 13 км н/о +7.4 +7.2 99 +7 +7 1029.2 1020.2
02 18.09 Ю 1 400 м туман н/о +7.0 +6.9 99 +6 +6 1029.1 1020.2
03 18.09 Ю 1 300 м туман н/о +6.3 +6.2 99 +5 +5 1028.9 1019.9
04 18.09 Ю 1 300 м туман н/о +6.4 +6.3 99 +5 +5 1028.9 1019.9
05 18.09 Ю 1 100 м туман н/о +5.4 +5.4 100 +5 +5 1029.0 1020.0
06 18.09 ЮВ 1 200 м туман н/о +5.1 +5.0 99 +4 +4 1029.3 1020.2 +4.9
07 18.09 Ю 2 200 м туман н/о +6.3 +6.3 100 +4 +4 1029.5 1020.5
08 18.09 Ю 2 300 м туман н/о +7.6 +7.6 100 +6 +6 1029.8 1020.8
09 18.09 Ю 2 21 км в посл. час туман н/о +9.7 +9.7 100 +8 +8 1030.2 1021.3
10 18.09 Ю 1 30 км н/о +12.9 +11.2 89 +13 +13 1030.2 1021.4
11 18.09 Ю 1 35 км н/о +15.8 +12.0 78 +16 +16 1030.2 1021.5
12 18.09 ЮВ 1 35 км н/о +17.0 +11.4 70 +18 +18 1030.1 1021.4
13 18.09 Ю 2 26 км н/о +18.1 +11.5 65 +19 +19 1029.8 1021.2
14 18.09 З 3 50 км н/о +18.5 +9.6 56 +19 +19 1029.6 1020.9
15 18.09 З 2 50 км н/о +19.7 +9.8 53 +22 +22 комфорт 1029.3 1020.7
16 18.09 С 2 35 км н/о +18.7 +11.3 62 +20 +20 1029.2 1020.5
17 18.09 СЗ 3 35 км н/о +18.3 +12.5 69 +19 +19 1029.1 1020.5
18 18.09 СЗ 3 35 км н/о +16.3 +12.1 76 +16 +16 1029.3 1020.6 +20.3
19 18.09 С 2 40 км н/о +14.3 +11.5 83 +14 +14 1029.7 1020.9
20 18.09 С 2 29 км в посл. час туман н/о +12.7 +10.7 88 +12 +12 1030.3 1021.5
21 18.09 С 1 40 км н/о +11.8 +11.0 95 +12 +12 1030.5 1021.6
22 18.09 В 1 40 км н/о +10.5 +9.8 95 +10 +10 1030.8 1021.9
23 18.09 С 1 25 км н/о +9.9 +9.4 97 +10 +10 1030.9 1022.0
00 19.09 ЮВ 1 17 км н/о +10.1 +9.7 97 +10 +10 1030.8 1021.9
01 19.09 Ю 1 7000 м дымка н/о +9.3 +9.0 98 +8 +8 1030.6 1021.7
02 19.09 З 1 900 м туман н/о +8.4 +8.2 99 +8 +8 1030.4 1021.4
03 19.09 штиль 0 200 м туман н/о +8.0 +7.9 99 +7 +7 1030.1 1021.2
04 19.09 Ю 1 500 м туман н/о +7.7 +7.6 99 +7 +7 1030.1 1021.1
05 19.09 ЮВ 2 300 м туман н/о +7.2 +7.2 100 +5 +5 1030.2 1021.2
06 19.09 Ю 2 200 м туман н/о +7.6 +7.6 100 +6 +6 1030.2 1021.2 +6.9
07 19.09 Ю 1 100 м туман н/о +7.3 +7.3 100 +6 +6 1030.4 1021.4
08 19.09 ЮВ 2 100 м туман н/о +7.9 +7.9 100 +6 +6 1030.9 1021.9
09 19.09 Ю 2 14 км в посл. час туман н/о +10.8 +10.8 100 +10 +10 1030.8 1021.9
10 19.09 Ю 2 19 км н/о +13.4 +12.2 92 +13 +13 1030.7 1021.9
11 19.09 Ю 2 30 км н/о +16.4 +13.1 81 +16 +16 1030.5 1021.8
12 19.09 Ю 2 30 км н/о +18.8 +13.8 73 +20 +20 1030.1 1021.5 0.2
13 19.09 ЮВ 3 30 км н/о +19.3 +12.7 66 +21 +21 комфорт 1029.6 1021.0
14 19.09 Ю 2 35 км н/о +20.5 +13.3 63 +23 +23 комфорт 1029.0 1020.5
15 19.09 ЮВ 3 45 км н/о +20.7 +12.1 58 +23 +23 комфорт 1028.6 1020.1
16 19.09 ЮВ 3 50 км н/о +20.6 +11.9 57 +23 +23 комфорт 1028.2 1019.6
17 19.09 ЮВ 3 50 км н/о +19.2 +11.4 61 +21 +21 комфорт 1027.8 1019.2
18 19.09 ЮВ 2 45 км н/о +18.3 +11.9 66 +19 +19 1027.5 1018.9 +21.2 0.2
19 19.09 ЮВ 2 35 км н/о +15.8 +11.4 75 +16 +16 1027.6 1018.9
20 19.09 ЮВ 3 30 км н/о +14.1 +11.1 82 +13 +13 1027.9 1019.1
21 19.09 ЮВ 3 25 км н/о +13.0 +11.0 88 +12 +12 1028.0 1019.2
22 19.09 Ю 3 27 км н/о +12.7 +10.7 88 +11 +11 1027.9 1019.1
23 19.09 ЮВ 2 21 км н/о +11.0 +9.4 90 +10 +10 1027.6 1018.7
00 20.09 ЮВ 2 26 км н/о +10.2 +9.1 93 +9 +9 1026.9 1018.1
01 20.09 ЮВ 3 19 км в посл. час туман н/о +8.9 +7.6 92 +7 +7 1026.7 1017.8
02 20.09 ЮВ 2 17 км в посл. час туман н/о +8.6 +8.1 97 +7 +7 1026.3 1017.4
03 20.09 ЮВ 2 5000 м дымка н/о +8.6 +8.3 98 +7 +7 1025.5 1016.6
04 20.09 ЮВ 3 100 м туман н/о +9.7 +9.7 100 +7 +7 1024.8 1016.0
05 20.09 В 3 100 м туман н/о +9.9 +9.9 100 +8 +8 1024.1 1015.3
06 20.09 ЮВ 2 100 м туман н/о +9.7 +9.7 100 +8 +8 1023.7 1014.9 +7.9
07 20.09 ЮВ 3 100 м туман н/о +9.6 +9.6 100 +7 +7 1023.3 1014.4
08 20.09 ЮВ 2 200 м туман н/о +9.7 +9.7 100 +8 +8 1023.1 1014.3
09 20.09 ЮВ 3 10 км в посл. час туман н/о +11.9 +11.9 100 +10 +10 1022.6 1013.8
10 20.09 ЮВ 5 28 км н/о +16.2 +12.3 78 +15 +15 1021.8 1013.2
11 20.09 ЮВ 6 35 км н/о +17.8 +12.5 71 +17 +17 1021.2 1012.6
12 20.09 ЮВ 7 23 км н/о +19.1 +13.5 70 +20 +20 1020.2 1011.7
13 20.09 ЮВ 7 27 км н/о +19.9 +13.4 66 +21 +21 комфорт 1018.9 1010.4
14 20.09 ЮВ 9
{13}
35 км н/о +20.2 +12.9 63 +22 +22 комфорт 1017.6 1009.1
15 20.09 ЮВ 10
{14}
35 км н/о +19.8 +12.4 62 +21 +21 комфорт 1016.5 1008.1
16 20.09 ЮВ 8
{14}
40 км н/о +18.9 +12.0 64 +19 +19 1015.8 1007.3
17 20.09 ЮВ 7
{13}
50 км н/о +18.0 +11.4 65 +17 +17 1014.9 1006.4
18 20.09 ЮВ 8 50 км н/о +16.3 +10.8 70 +15 +15 1014.4 1005.8 +20.5
19 20.09 ЮВ 7
{13}
45 км н/о +14.4 +10.5 77 +12 +12 1014.1 1005.5
20 20.09 ЮВ 7 35 км н/о +13.6 +10.8 83 +11 +11 1013.5 1004.8
21 20.09 ЮВ 6 30 км н/о +13.3 +10.3 82 +11 +11 1012.8 1004.2
22 20.09 ЮВ 4 28 км н/о +12.9 +10.4 85 +11 +11 1012.4 1003.7
23 20.09 ЮВ 6 35 км н/о +13.3 +11.1 87 +11 +11 1011.5 1002.9
00 21.09 ЮВ 9 30 км н/о +14.3 +11.1 81 +12 +12 1010.6 1002.0
01 21.09 ЮВ 8 27 км н/о +13.8 +10.9 83 +11 +11 1010.2 1001.6
02 21.09 ЮВ 7 30 км н/о +13.0 +10.5 85 +10 +10 1009.4 1000.8
03 21.09 ЮВ 8 35 км н/о +13.1 +10.0 81 +10 +10 1008.8 1000.1
04 21.09 ЮВ 8 35 км н/о +13.3 +9.7 79 +11 +11 1008.0 999.4
05 21.09 ЮВ 8 35 км н/о +12.9 +8.7 76 +10 +10 1007.4 998.7
06 21.09 ЮВ 7 35 км н/о +12.9 +8.3 74 +10 +10 1006.7 998.1 +12.3
07 21.09 ЮВ 6 35 км н/о +13.3 +8.7 74 +11 +11 1006.6 998.0
08 21.09 ЮВ 7 40 км н/о +14.5 +9.2 70 +12 +12 1006.0 997.5
09 21.09 ЮВ 6 24 км н/о +15.7 +10.4 71 +14 +14 1005.7 997.2
10 21.09 ЮВ 8
{14}
35 км н/о +16.8 +11.0 69 +15 +15 1004.8 996.3
11 21.09 ЮВ 10-15
{15}
30 км н/о +18.9 +10.9 60 +19 +19 1003.9 995.5
12 21.09 ЮВ 9
{15}
23 км н/о +19.4 +11.7 61 +20 +20 1003.4 995.0
13 21.09 ЮВ 9-14
{14}
30 км н/о +19.4 +11.7 61 +20 +20 1003.1 994.7
14 21.09 Ю 2
{14}
10 км ливневой дождь н/о +15.9 +12.5 80 +16 +16 1003.1 994.6

 

Местоположение метеостанции Томастаун (Великобритания): широта 54.33 долгота -7.59 высота над уровнем моря 72 м.

В архиве по умолчанию представлена погода в Томастауне за последнюю неделю. Архивные данные за месяц целиком и за предыдущие месяцы, начиная с января 2011 года, Вы можете получить, выбрав интересующий диапазон дат из раскрывающегося списка и нажав кнопку "Ввод!".


*Определитесь, кто Вы:
робот инопланетянин человек

Внимание! Время в таблицах - всемирное. Для получения местного времени необходимо прибавить поправку, которая равна 0 ч.

Смотрите также архив погоды в соседних городах и на ближайших метеорологических станциях:

Погода в Баллихейзе (Ирландия) (36 км)
Погода в Каследерге (Великобритания) (41 км)
Погода на Финнер-роуд (Ирландия) (46 км)
Погода на Озере Lough Fea (Великобритания) (66 км)
Погода в Гленане (Великобритания) (72 км)
Погода в Муллингаре (Ирландия) (89 км)
Погода в Аэропорту Нок (Ирландия) (93 км)
Погода в Портгленоне (Великобритания) (95 км)
Погода в Белфасте (Великобритания) (95 км)
Погода на Магиллигане (Великобритания) (101 км)

Пояснения к столбцам:

Ветер - указаны скорость ветра в м/с - средняя за 10 мин, порывы в срок и между сроками (в фигурных скобках) и направление, откуда дует ветер: С - северный, СВ - северо-восточный, В - восточный, ЮВ - юго-восточный, Ю - южный, ЮЗ - юго-западный, З - западный, СЗ - северо-западный.
Видимость - горизонтальная дальность видимости в метрах или километрах. При видимости от 1 до 10 км при отсутствии осадков обычно наблюдается дымка, при ухудшении видимости до 1 км и менее - туман. В сухую погоду видимость может ухудшаться дымом, пылью или мглою.
Явления - указаны атмосферные явления, наблюдавшиеся в срок или в последний час перед сроком; фигурными скобками обозначены явления, наблюдавшиеся между сроками (за 1-3 часа до срока); квадратными скобками обозначены град или гололедные отложения с указанием их диаметра в мм.
Облачность - указаны через наклонную черту общая и нижняя облачность в баллах и высота нижней границы облаков в метрах; квадратными скобками обозначены формы облаков: Ci - перистые, Cs - перисто-слоистые, Cc - перисто-кучевые, Ac - высококучевые, As - высокослоистые, Sc - слоисто-кучевые, Ns - слоисто-дождевые, Cu - кучевые, Cb - кучево-дождевые. Подробнее классификацию облаков см. в Атласе облаков (PDF).
T - Температура воздуха - температура, измеренная на высоте 2 м над землей.
Td - Температура точки росы - температура, при понижении до которой содержащийся в воздухе водяной пар достигнет насыщения.
f - Относительная влажность воздуха - влажноcть воздуха, измеренная на высоте 2 м над землей.
Te - Эффективная температура - температура, которую ощущает одетый по сезону человек в тени. Характеристика душности погоды. При расчете учитывается влияние влажности воздуха и скорости ветра на теплоощущения человека.
Tes - Эффективная температура на солнце - температура, которую ощущает человек, с поправкой на солнечный нагрев. Характеристика знойности погоды. Зависит от высоты солнца над горизонтом, облачности и скорости ветра. Ночью, в пасмурную погоду, а также при ветре 12 м/с и более поправка равна нулю.
P - Атмосферное давление - приведенное к уровню моря атмосферное давление.
Po - Атмосферное давление - измеренное на уровне метеостанции атмосферное давление.
Tmin - Минимальная температура - минимум температуры воздуха на высоте 2 м над землей.
Tmax - Максимальная температура - максимум температуры воздуха на высоте 2 м над землей.
R - Количество осадков - Количество выпавших осадков за период времени, мм. При наведении курсора мыши на число - период времени, за который выпало указанное количество осадков.
R24 - Количество осадков - Количество выпавших осадков за 24 часа, мм.
S - Снежный покров - Высота снежного покрова, см. При наведении курсора мыши на число - состояние снежного покрова и степень покрытия местности в баллах.